Madison, SD

3:53 AM CDT on March 23, 2017 (GMT -0500)
Madison Municipal

Weather History for KMDS - October, 2013

Change the Weather History Date:

Tuesday, October 8, 2013

  Actual Average Record
Temperature  
Mean Temperature 62 °F -  
Max Temperature 77 °F 62 °F 84 °F (2010)
Min Temperature 48 °F 37 °F 32 °F (2016)
Degree Days  
Heating Degree Days 2    
Growing Degree Days 12 (Base 50)    
Moisture  
Dew Point 42 °F    
Average Humidity 53    
Maximum Humidity 82    
Minimum Humidity 26    
Precipitation  
Precipitation 0.00 in - - ()
Sea Level Pressure  
Sea Level Pressure 29.79 in    
Wind  
Wind Speed 14 mph (South)    
Max Wind Speed 31 mph    
Max Gust Speed 39 mph    
Visibility 10 miles    
Events      
Averages and records for this station are not official NWS values.
T = Trace of Precipitation, MM = Missing Value Source: NWS Daily Summary

Daily Weather History Graph

Daily Weather History Graph

Search for Another Location

Airport or City:

Trip Planner

Search our weather history database for the weather conditions in past years. The results will help you decide how hot, cold, wet, or windy it might be!

Date:

Astronomy

Oct. 08, 2013 Rise Set
Actual Time 7:34 AM CDT 6:56 PM CDT
Civil Twilight 7:05 AM CDT 7:24 PM CDT
Nautical Twilight 6:32 AM CDT 7:58 PM CDT
Astronomical Twilight 5:58 AM CDT 8:31 PM CDT
Moon 11:38 AM CDT (10/8) 9:25 PM CDT (10/8)
Length of Visible Light 12h 19m
Length of Day
11h 21m
Waxing Crescent, 16% of the Moon is Illuminated
Oct 8
Waxing Crescent
Oct 11
First Quarter
Oct 18
Full
Oct 26
Last Quarter
Nov 3
New

Hourly Weather History & Observations

Time (CDT) Temp. Dew Point Humidity Pressure Visibility Wind Dir Wind Speed Gust Speed Precip Events Conditions
12:10 AM 50.0 °F 42.8 °F 76% 29.88 in 10.0 mi SSE 8.1 mph - N/A   Clear
12:30 AM 50.0 °F 42.8 °F 76% 29.87 in 10.0 mi SSE 11.5 mph - N/A   Clear
12:50 AM 50.0 °F 44.6 °F 82% 29.86 in 10.0 mi SSE 10.4 mph - N/A   Clear
1:10 AM 50.0 °F 44.6 °F 82% 29.86 in 10.0 mi SSE 9.2 mph - N/A   Clear
1:30 AM 50.0 °F 44.6 °F 82% 29.86 in 10.0 mi SSE 9.2 mph - N/A   Clear
1:50 AM 50.0 °F 44.6 °F 82% 29.85 in 10.0 mi SSE 10.4 mph - N/A   Clear
2:10 AM 50.0 °F 44.6 °F 82% 29.85 in 10.0 mi SSE 9.2 mph - N/A   Clear
2:30 AM 50.0 °F 44.6 °F 82% 29.84 in 10.0 mi SSE 10.4 mph - N/A   Clear
2:50 AM 50.0 °F 44.6 °F 82% 29.83 in 10.0 mi SSE 12.7 mph - N/A   Clear
3:10 AM 51.8 °F 42.8 °F 71% 29.83 in 10.0 mi South 11.5 mph - N/A   Clear
3:30 AM 50.0 °F 42.8 °F 76% 29.83 in 10.0 mi South 9.2 mph - N/A   Clear
3:50 AM 51.8 °F 41.0 °F 67% 29.82 in 10.0 mi South 11.5 mph - N/A   Clear
4:10 AM 51.8 °F 41.0 °F 67% 29.82 in 10.0 mi South 10.4 mph - N/A   Clear
4:30 AM 51.8 °F 41.0 °F 67% 29.81 in 10.0 mi South 11.5 mph - N/A   Clear
4:50 AM 50.0 °F 41.0 °F 71% 29.81 in 10.0 mi SSE 10.4 mph - N/A   Clear
5:10 AM 50.0 °F 41.0 °F 71% 29.81 in 10.0 mi South 9.2 mph - N/A   Clear
5:30 AM 50.0 °F 41.0 °F 71% 29.81 in 10.0 mi South 10.4 mph - N/A   Clear
5:50 AM 50.0 °F 41.0 °F 71% 29.81 in 10.0 mi South 10.4 mph - N/A   Clear
6:10 AM 50.0 °F 41.0 °F 71% 29.80 in 10.0 mi South 12.7 mph - N/A   Clear
6:30 AM 50.0 °F 41.0 °F 71% 29.80 in 10.0 mi South 13.8 mph - N/A   Clear
6:50 AM 50.0 °F 41.0 °F 71% 29.80 in 10.0 mi South 12.7 mph - N/A   Clear
7:10 AM 48.2 °F 41.0 °F 76% 29.80 in 10.0 mi South 10.4 mph - N/A   Clear
7:30 AM 48.2 °F 41.0 °F 76% 29.80 in 10.0 mi South 9.2 mph - N/A   Clear
7:50 AM 50.0 °F 41.0 °F 71% 29.80 in 10.0 mi South 11.5 mph - N/A   Clear
8:10 AM 50.0 °F 41.0 °F 71% 29.80 in 10.0 mi South 15.0 mph - N/A   Clear
8:30 AM 53.6 °F 41.0 °F 62% 29.80 in 10.0 mi South 12.7 mph - N/A   Clear
8:50 AM 55.4 °F 42.8 °F 63% 29.79 in 10.0 mi South 17.3 mph - N/A   Clear
9:10 AM 55.4 °F 41.0 °F 58% 29.78 in 10.0 mi South 16.1 mph 23.0 mph N/A   Clear
9:30 AM 57.2 °F 41.0 °F 55% 29.79 in 10.0 mi South 16.1 mph 23.0 mph N/A   Clear
9:50 AM 59.0 °F 41.0 °F 51% 29.78 in 10.0 mi South 19.6 mph 25.3 mph N/A   Clear
10:10 AM 60.8 °F 41.0 °F 48% 29.78 in 10.0 mi South 25.3 mph 29.9 mph N/A   Clear
10:30 AM 62.6 °F 41.0 °F 45% 29.77 in 10.0 mi South 20.7 mph 31.1 mph N/A   Clear
10:50 AM 62.6 °F 41.0 °F 45% 29.77 in 10.0 mi South 23.0 mph 31.1 mph N/A   Clear
11:10 AM 64.4 °F 42.8 °F 45% 29.77 in 10.0 mi South 20.7 mph 34.5 mph N/A   Clear
11:30 AM 66.2 °F 41.0 °F 40% 29.77 in 10.0 mi South 18.4 mph 28.8 mph N/A   Clear
11:50 AM 68.0 °F 41.0 °F 37% 29.76 in 10.0 mi SSW 18.4 mph 28.8 mph N/A   Clear
12:10 PM 68.0 °F 41.0 °F 37% 29.75 in 10.0 mi SSW 25.3 mph 31.1 mph N/A   Clear
12:30 PM 71.6 °F 41.0 °F 33% 29.75 in 10.0 mi SSW 24.2 mph 34.5 mph N/A   Clear
12:50 PM 71.6 °F 41.0 °F 33% 29.75 in 10.0 mi SSW 23.0 mph 33.4 mph N/A   Clear
1:10 PM 69.8 °F 41.0 °F 35% 29.75 in 10.0 mi South 25.3 mph 33.4 mph N/A   Clear
1:30 PM 69.8 °F 41.0 °F 35% 29.74 in 10.0 mi South 24.2 mph 29.9 mph N/A   Clear
1:50 PM 71.6 °F 41.0 °F 33% 29.73 in 10.0 mi South 20.7 mph 32.2 mph N/A   Clear
2:10 PM 71.6 °F 41.0 °F 33% 29.72 in 10.0 mi SSW 26.5 mph 33.4 mph N/A   Clear
2:30 PM 73.4 °F 41.0 °F 31% 29.72 in 10.0 mi South 25.3 mph 38.0 mph N/A   Clear
2:50 PM 75.2 °F 41.0 °F 29% 29.71 in 10.0 mi South 24.2 mph 32.2 mph N/A   Clear
3:10 PM 73.4 °F 41.0 °F 31% 29.72 in 10.0 mi SSW 26.5 mph 34.5 mph N/A   Clear
3:30 PM 75.2 °F 41.0 °F 29% 29.72 in 10.0 mi SSW 24.2 mph 32.2 mph N/A   Clear
3:50 PM 77.0 °F 39.2 °F 26% 29.72 in 10.0 mi SSW 27.6 mph 35.7 mph N/A   Clear
4:10 PM 75.2 °F 39.2 °F 27% 29.72 in 10.0 mi SSW 31.1 mph 39.1 mph N/A   Clear
4:30 PM 75.2 °F 39.2 °F 27% 29.73 in 10.0 mi SSW 27.6 mph 35.7 mph N/A   Clear
4:50 PM 75.2 °F 39.2 °F 27% 29.72 in 10.0 mi SSW 27.6 mph 39.1 mph N/A   Clear
5:10 PM 75.2 °F 39.2 °F 27% 29.73 in 10.0 mi SSW 24.2 mph 34.5 mph N/A   Clear
5:30 PM 73.4 °F 41.0 °F 31% 29.73 in 10.0 mi SSW 27.6 mph 35.7 mph N/A   Clear
5:50 PM 73.4 °F 41.0 °F 31% 29.74 in 10.0 mi SSW 21.9 mph 31.1 mph N/A   Clear
6:10 PM 71.6 °F 41.0 °F 33% 29.75 in 10.0 mi SSW 16.1 mph 27.6 mph N/A   Clear
6:30 PM 69.8 °F 42.8 °F 38% 29.76 in 10.0 mi South 13.8 mph - N/A   Clear
6:50 PM 68.0 °F 42.8 °F 40% 29.76 in 10.0 mi SSW 15.0 mph 19.6 mph N/A   Clear
7:10 PM 66.2 °F 44.6 °F 46% 29.77 in 10.0 mi South 11.5 mph - N/A   Clear
7:30 PM 64.4 °F 44.6 °F 49% 29.77 in 10.0 mi South 11.5 mph - N/A   Clear
7:50 PM 64.4 °F 44.6 °F 49% 29.78 in 10.0 mi South 13.8 mph - N/A   Clear
8:10 PM 62.6 °F 44.6 °F 52% 29.78 in 10.0 mi South 12.7 mph - N/A   Clear
8:30 PM 62.6 °F 44.6 °F 52% 29.79 in 10.0 mi South 13.8 mph - N/A   Clear
8:50 PM 62.6 °F 44.6 °F 52% 29.79 in 10.0 mi South 15.0 mph - N/A   Clear
9:10 PM 62.6 °F 44.6 °F 52% 29.80 in 10.0 mi South 15.0 mph - N/A   Clear
9:30 PM 62.6 °F 44.6 °F 52% 29.81 in 10.0 mi South 17.3 mph 21.9 mph N/A   Clear
9:50 PM 62.6 °F 44.6 °F 52% 29.81 in 10.0 mi South 21.9 mph 27.6 mph N/A   Clear
10:10 PM 64.4 °F 44.6 °F 49% 29.82 in 10.0 mi South 20.7 mph 26.5 mph N/A   Clear
10:30 PM 62.6 °F 44.6 °F 52% 29.82 in 10.0 mi South 19.6 mph 25.3 mph N/A   Clear
10:50 PM 62.6 °F 44.6 °F 52% 29.83 in 10.0 mi South 17.3 mph 25.3 mph N/A   Clear
11:10 PM 62.6 °F 44.6 °F 52% 29.83 in 10.0 mi South 19.6 mph 24.2 mph N/A   Clear
11:30 PM 60.8 °F 44.6 °F 55% 29.84 in 10.0 mi South 17.3 mph 23.0 mph N/A   Clear
11:50 PM 60.8 °F 44.6 °F 55% 29.84 in 10.0 mi South 16.1 mph 21.9 mph N/A   Clear